TimeAKST,TemperatureF,Dew PointF,Humidity,Sea Level PressureIn,VisibilityMPH,Wind Direction,Wind SpeedMPH,Gust SpeedMPH,PrecipitationIn,Events,Conditions,WindDirDegrees,DateUTC
12:16 AM,8.6,-0.4,67,30.16,10.0,SW,17.3,-,N/A,,Partly Cloudy,230,2014-01-04 09:16:00
12:36 AM,8.6,-0.4,67,30.17,10.0,SW,18.4,-,N/A,,Clear,230,2014-01-04 09:36:00
12:56 AM,8.6,-0.4,67,30.17,10.0,WSW,16.1,-,N/A,,Clear,240,2014-01-04 09:56:00
1:16 AM,8.6,-0.4,67,30.18,10.0,SW,11.5,-,N/A,,Clear,220,2014-01-04 10:16:00
1:36 AM,6.8,-0.4,72,30.18,10.0,SW,12.7,18.4,N/A,,Partly Cloudy,220,2014-01-04 10:36:00
1:56 AM,6.8,-0.4,72,30.18,10.0,South,12.7,-,N/A,,Partly Cloudy,190,2014-01-04 10:56:00
2:16 AM,6.8,-0.4,72,30.18,10.0,SW,13.8,18.4,N/A,,Clear,220,2014-01-04 11:16:00
2:36 AM,6.8,-0.4,72,30.18,10.0,SSW,11.5,17.3,N/A,,Clear,200,2014-01-04 11:36:00
2:56 AM,6.8,-0.4,72,30.18,10.0,SW,13.8,19.6,N/A,,Clear,220,2014-01-04 11:56:00
3:16 AM,6.8,-0.4,72,30.19,10.0,South,15.0,-,N/A,,Clear,180,2014-01-04 12:16:00
3:36 AM,6.8,-0.4,72,30.19,9.0,SSE,16.1,24.2,N/A,,Clear,160,2014-01-04 12:36:00
3:56 AM,6.8,-2.2,67,30.19,10.0,SW,16.1,23.0,N/A,,Clear,220,2014-01-04 12:56:00
4:16 AM,6.8,-0.4,72,30.19,10.0,South,9.2,-,N/A,,Clear,190,2014-01-04 13:16:00
4:36 AM,6.8,-2.2,67,30.20,10.0,SSW,9.2,-,N/A,,Clear,200,2014-01-04 13:36:00
4:56 AM,6.8,-0.4,72,30.20,10.0,South,8.1,17.3,N/A,,Clear,190,2014-01-04 13:56:00
5:16 AM,5.0,-2.2,72,30.20,10.0,South,11.5,-,N/A,,Clear,190,2014-01-04 14:16:00
5:36 AM,5.0,-2.2,72,30.19,10.0,SSE,19.6,25.3,N/A,,Clear,160,2014-01-04 14:36:00
5:56 AM,6.8,-0.4,72,30.20,10.0,South,17.3,24.2,N/A,,Clear,180,2014-01-04 14:56:00
6:16 AM,6.8,-0.4,72,30.20,10.0,South,18.4,-,N/A,,Clear,190,2014-01-04 15:16:00
6:36 AM,5.0,-2.2,72,30.20,10.0,South,19.6,25.3,N/A,,Clear,170,2014-01-04 15:36:00
6:56 AM,6.8,-0.4,72,30.20,10.0,South,18.4,-,N/A,,Clear,180,2014-01-04 15:56:00
7:16 AM,6.8,-0.4,72,30.20,10.0,South,19.6,-,N/A,,Clear,170,2014-01-04 16:16:00
7:36 AM,5.0,-2.2,72,30.20,10.0,South,16.1,-,N/A,,Clear,180,2014-01-04 16:36:00
7:56 AM,3.2,-4.0,72,30.20,10.0,South,15.0,-,N/A,,Clear,190,2014-01-04 16:56:00
8:16 AM,3.2,-2.2,78,30.19,10.0,South,17.3,-,N/A,,Clear,180,2014-01-04 17:16:00
8:36 AM,3.2,-5.8,66,30.20,10.0,South,13.8,-,N/A,,Clear,170,2014-01-04 17:36:00
8:56 AM,1.4,-5.8,72,30.19,10.0,South,16.1,-,N/A,,Clear,180,2014-01-04 17:56:00
9:16 AM,3.2,-2.2,78,30.19,10.0,South,16.1,-,N/A,,Clear,190,2014-01-04 18:16:00
9:36 AM,1.4,-5.8,72,30.19,10.0,South,13.8,-,N/A,,Clear,180,2014-01-04 18:36:00
9:56 AM,1.4,-5.8,72,30.19,10.0,South,13.8,-,N/A,,Clear,180,2014-01-04 18:56:00
10:16 AM,1.4,-5.8,72,30.19,10.0,South,13.8,-,N/A,,Clear,180,2014-01-04 19:16:00
10:36 AM,1.4,-4.0,78,30.19,10.0,South,13.8,-,N/A,,Clear,190,2014-01-04 19:36:00
10:56 AM,1.4,-5.8,72,30.19,10.0,South,15.0,-,N/A,,Clear,190,2014-01-04 19:56:00
11:16 AM,1.4,-5.8,72,30.19,10.0,South,15.0,-,N/A,,Clear,190,2014-01-04 20:16:00
11:36 AM,1.4,-5.8,72,30.18,10.0,South,15.0,-,N/A,,Clear,180,2014-01-04 20:36:00
11:56 AM,1.4,-5.8,72,30.19,10.0,South,12.7,-,N/A,,Clear,190,2014-01-04 20:56:00
12:16 PM,1.4,-5.8,72,30.18,10.0,South,12.7,-,N/A,,Clear,180,2014-01-04 21:16:00
12:36 PM,1.4,-5.8,72,30.18,10.0,South,15.0,-,N/A,,Clear,190,2014-01-04 21:36:00
12:56 PM,1.4,-5.8,72,30.18,10.0,South,13.8,-,N/A,,Clear,190,2014-01-04 21:56:00
1:16 PM,1.4,-5.8,72,30.18,10.0,SSW,10.4,-,N/A,,Clear,200,2014-01-04 22:16:00
1:36 PM,-0.4,-7.6,72,30.17,10.0,South,12.7,-,N/A,,Clear,180,2014-01-04 22:36:00
1:56 PM,1.4,-5.8,72,30.17,10.0,South,11.5,-,N/A,,Clear,180,2014-01-04 22:56:00
2:16 PM,-0.4,-7.6,72,30.16,10.0,SSW,10.4,-,N/A,,Clear,200,2014-01-04 23:16:00
2:36 PM,-0.4,-5.8,78,30.16,10.0,SSW,12.7,-,N/A,,Clear,200,2014-01-04 23:36:00
2:56 PM,1.4,-5.8,72,30.16,10.0,South,12.7,-,N/A,,Clear,190,2014-01-04 23:56:00
3:16 PM,1.4,-5.8,72,30.15,10.0,SSW,11.5,-,N/A,,Clear,200,2014-01-05 00:16:00
3:36 PM,1.4,-5.8,72,30.15,10.0,South,11.5,-,N/A,,Clear,180,2014-01-05 00:36:00
3:56 PM,-0.4,-7.6,72,30.14,10.0,South,10.4,-,N/A,,Clear,180,2014-01-05 00:56:00
4:16 PM,-0.4,-7.6,72,30.14,10.0,SSW,9.2,-,N/A,,Clear,200,2014-01-05 01:16:00
4:36 PM,-2.2,-9.4,71,30.13,10.0,SSW,8.1,-,N/A,,Clear,210,2014-01-05 01:36:00
4:56 PM,-2.2,-9.4,71,30.12,10.0,SSW,6.9,-,N/A,,Clear,210,2014-01-05 01:56:00
5:16 PM,-2.2,-9.4,71,30.11,10.0,SSW,8.1,-,N/A,,Clear,200,2014-01-05 02:16:00
5:36 PM,-2.2,-7.6,78,30.11,10.0,SSW,8.1,-,N/A,,Clear,200,2014-01-05 02:36:00
5:56 PM,-2.2,-9.4,71,30.09,10.0,South,6.9,-,N/A,,Clear,190,2014-01-05 02:56:00
6:16 PM,-2.2,-9.4,71,30.08,10.0,South,9.2,-,N/A,,Clear,190,2014-01-05 03:16:00
6:36 PM,-5.8,-11.2,77,30.07,10.0,South,8.1,-,N/A,,Clear,190,2014-01-05 03:36:00
6:56 PM,-4.0,-9.4,78,30.06,10.0,SSW,8.1,-,N/A,,Clear,200,2014-01-05 03:56:00
7:16 PM,-2.2,-9.4,71,30.05,10.0,SSW,8.1,-,N/A,,Clear,200,2014-01-05 04:16:00
7:36 PM,-2.2,-9.4,71,30.04,10.0,SSW,5.8,-,N/A,,Clear,210,2014-01-05 04:36:00
7:56 PM,-4.0,-11.2,71,30.04,10.0,South,8.1,-,N/A,,Clear,190,2014-01-05 04:56:00
8:16 PM,-2.2,-9.4,71,30.03,10.0,SW,5.8,-,N/A,,Clear,220,2014-01-05 05:16:00
8:36 PM,-4.0,-9.4,78,30.03,10.0,SSW,8.1,-,N/A,,Clear,200,2014-01-05 05:36:00
8:56 PM,-4.0,-11.2,71,30.02,10.0,South,5.8,-,N/A,,Clear,190,2014-01-05 05:56:00
9:16 PM,-2.2,-9.4,71,30.00,10.0,SSW,4.6,-,N/A,,Clear,210,2014-01-05 06:16:00
9:36 PM,-4.0,-9.4,78,29.99,10.0,SW,4.6,-,N/A,,Clear,230,2014-01-05 06:36:00
9:56 PM,-5.8,-13.0,71,29.98,7.0,SSW,5.8,-,N/A,,Clear,210,2014-01-05 06:56:00
10:16 PM,-5.8,-9999,N/A,29.97,10.0,SSW,4.6,-,N/A,,Clear,210,2014-01-05 07:16:00
10:36 PM,-5.8,-11.2,77,29.96,10.0,South,4.6,-,N/A,,Clear,180,2014-01-05 07:36:00
10:56 PM,-5.8,-9999,N/A,29.96,10.0,Calm,Calm,-,N/A,,Clear,0,2014-01-05 07:56:00
11:16 PM,-5.8,-11.2,77,29.95,10.0,Calm,Calm,-,N/A,,Clear,0,2014-01-05 08:16:00
11:36 PM,-5.8,-9.4,84,29.94,10.0,Calm,Calm,-,N/A,,Clear,0,2014-01-05 08:36:00
11:56 PM,-5.8,-11.2,77,29.93,10.0,Calm,Calm,-,N/A,,Clear,0,2014-01-05 08:56:00